EW7952 Weather Reports


time (UTC)temp
F
wind
direction
speed
knots
gust
knots
rain 1hr
in
rain 24hr
in
rain mn
in
humidity
%
barometer
mb
20260507033213 49 90 2.6 2.6 0.02 0.51 0.12 93 8.9
20260507032213 49 135 0.0 0.0 0.02 0.51 0.12 93 8.7
20260507031212 49 247 0.0 0.0 0.04 0.51 0.12 93 8.7
20260507030212 49 112 1.7 1.7 0.06 0.51 0.12 93 8.8
20260507024211 50 90 2.6 2.6 0.08 0.51 0.12 93 8.7
20260507023215 50 22 0.0 0.0 0.08 0.49 0.10 93 8.6
20260507022215 50 67 0.0 0.0 0.08 0.49 0.10 93 8.6
20260507021214 51 22 5.2 5.2 0.06 0.45 0.06 93 8.5
20260507020214 51 22 5.2 5.2 0.06 0.45 0.06 93 8.5
20260507014213 51 337 0.9 0.9 0.04 0.43 0.04 93 8.4
20260507013212 51 202 1.7 1.7 0.02 0.41 0.02 93 8.2
20260507012211 51 90 1.7 1.7 0.02 0.41 0.02 93 8.2
20260507011215 51 180 0.0 0.0 0.00 0.39 0.00 93 8.1
20260507010215 51 180 0.0 0.0 0.00 0.39 0.00 93 8.1
20260507005213 51 337 0.0 0.0 0.00 0.39 0.00 93 8.1
20260507003212 51 315 0.0 0.0 0.00 0.39 0.00 93 7.9
20260507002214 51 22 0.9 0.9 0.00 0.39 0.00 93 8.0
20260507001212 51 90 0.0 0.0 0.00 0.39 0.00 93 8.0
20260506235210 51 337 0.0 0.0 0.00 0.39 0.00 93 7.9
20260506234215 51 337 0.0 0.0 0.00 0.39 0.00 93 8.0
20260506233215 51 22 0.0 0.0 0.00 0.39 0.00 92 8.1
20260506232213 51 22 0.0 0.0 0.00 0.39 0.00 92 7.9
20260506231213 51 22 0.0 0.0 0.00 0.39 0.00 92 7.8
20260506230212 52 270 0.0 0.0 0.00 0.39 0.00 92 7.7
20260506224215 52 225 0.0 0.0 0.00 0.39 0.00 92 7.8
20260506223214 52 225 0.0 0.0 0.04 0.39 0.00 92 7.8
20260506222213 53 247 0.0 0.0 0.04 0.39 0.00 91 7.8
20260506221211 53 247 0.0 0.0 0.06 0.39 0.00 91 7.9
20260506220211 53 337 0.0 0.0 0.08 0.39 0.39 91 7.7
20260506215211 53 337 0.0 0.0 0.08 0.39 0.39 92 7.9
20260506214215 53 247 0.0 0.0 0.10 0.39 0.39 92 7.9
20260506212213 53 292 0.0 0.0 0.06 0.35 0.35 91 7.9
20260506211213 53 202 0.0 0.0 0.06 0.33 0.33 91 7.7
20260506210211 54 67 0.0 0.0 0.04 0.31 0.31 91 7.6
20260506205211 53 202 0.0 0.0 0.06 0.31 0.31 91 7.7
20260506204216 53 270 0.0 0.0 0.04 0.28 0.28 91 7.7
20260506203214 53 225 0.0 0.0 0.04 0.28 0.28 90 7.7
20260506201213 53 337 0.0 0.0 0.02 0.26 0.26 89 7.6
20260506200213 54 67 0.0 0.0 0.02 0.26 0.26 89 7.4
20260506195212 54 112 0.0 0.0 0.00 0.49 0.24 89 7.3
20260506193215 53 22 0.9 0.9 0.00 0.49 0.24 89 7.0
20260506192214 54 337 0.0 0.0 0.00 0.49 0.24 89 6.9
20260506191214 54 292 0.0 0.0 0.00 0.49 0.24 88 6.7
20260506185211 54 315 0.0 0.0 0.00 0.90 0.24 86 6.2
20260506184211 55 225 1.7 1.7 0.00 0.90 0.24 86 6.0
20260506183210 55 247 0.0 0.0 0.00 0.90 0.24 85 6.0
20260506182214 56 270 0.0 0.0 0.00 0.90 0.24 84 5.9
20260506181214 56 225 0.0 0.0 0.00 0.90 0.24 83 5.7
20260506180213 57 337 0.0 0.0 0.00 0.90 0.24 79 5.8
20260506175212 58 202 3.5 3.5 0.00 0.92 0.24 75 5.9
20260506174212 59 292 0.0 0.0 0.00 0.92 0.24 71 5.9
20260506172211 61 247 2.6 2.6 0.00 0.92 0.24 65 5.7
20260506044209 52 135 0.0 0.0 0.00 2.04 0.08 94 5.6
20260506043215 52 157 0.0 0.0 0.00 2.04 0.08 94 5.5
20260506042215 52 225 0.0 0.0 0.00 2.04 0.08 94 5.5
20260506041214 52 225 0.0 0.0 0.00 2.04 0.08 94 5.5
20260506040214 52 270 0.0 0.0 0.00 2.04 0.08 94 5.4
20260506034213 52 202 0.0 0.0 0.00 2.04 0.08 94 5.4